When you browse on this site, cookies collect data to enhance your experience and personalize the content and advertising you see.
Visit our Privacy Policy to learn more. By continuing to use the site, you agree to this use of cookies and data.
  • en Suisse
  • Liste des pays
  • À 7 jours
  • Température de l'eau
  • Carte météo
  • Widgets météo
  • user-avatar
    Se connecter

    Météo par heure à Châlons-en-Champagne

    Ce jour, 5 Juin, Vendredi

    Heure Température Précipitation Vent Pression Humidité
    00:00 +10°C° 0 mm 2 m/s 744 mmHg 92%
    01:00 +10°C° 0 mm 2 m/s 743 mmHg 92%
    02:00 +10°C° 0 mm 2 m/s 743 mmHg 91%
    03:00 +9°C° 0 mm 3 m/s 743 mmHg 91%
    04:00 +10°C° 0 mm 3 m/s 743 mmHg 89%
    05:00 +10°C° 0 mm 4 m/s 742 mmHg 88%
    06:00 +9°C° 0 mm 5 m/s 743 mmHg 88%
    07:00 +9°C° 0.3 mm 6 m/s 742 mmHg 90%
    08:00 +9°C° 0.3 mm 7 m/s 742 mmHg 92%
    09:00 +9°C° 0.3 mm 7 m/s 741 mmHg 93%
    10:00 +9°C° 0.3 mm 8 m/s 741 mmHg 94%
    11:00 +10°C° 0.3 mm 8 m/s 741 mmHg 94%
    12:00 +11°C° 0 mm 8 m/s 741 mmHg 94%
    13:00 +11°C° 0.5 mm 7 m/s 741 mmHg 92%
    14:00 +12°C° 0.5 mm 7 m/s 741 mmHg 89%
    15:00 +14°C° 0.5 mm 6 m/s 741 mmHg 87%
    16:00 +14°C° 0.3 mm 6 m/s 742 mmHg 87%
    17:00 +13°C° 0.3 mm 5 m/s 742 mmHg 87%
    18:00 +13°C° 0.3 mm 5 m/s 743 mmHg 87%
    19:00 +12°C° 0.1 mm 4 m/s 743 mmHg 89%
    20:00 +10°C° 0.1 mm 4 m/s 743 mmHg 90%
    21:00 +9°C° 0.1 mm 3 m/s 744 mmHg 92%
    22:00 +10°C° 0.2 mm 4 m/s 744 mmHg 93%
    23:00 +10°C° 0.2 mm 4 m/s 744 mmHg 95%

    Demain, 6 Juin, Samedi

    Heure Température Précipitation Vent Pression Humidité
    00:00 +10°C° 0.2 mm 4 m/s 744 mmHg 96%
    01:00 +10°C° 0.6 mm 4 m/s 744 mmHg 96%
    02:00 +11°C° 0.6 mm 4 m/s 744 mmHg 97%
    03:00 +11°C° 0.6 mm 4 m/s 743 mmHg 97%
    04:00 +11°C° 0.2 mm 4 m/s 743 mmHg 96%
    05:00 +11°C° 0.2 mm 4 m/s 744 mmHg 94%
    06:00 +11°C° 0.2 mm 4 m/s 744 mmHg 93%
    07:00 +12°C° 0.2 mm 5 m/s 744 mmHg 87%
    08:00 +13°C° 0.2 mm 5 m/s 744 mmHg 81%
    09:00 +14°C° 0.2 mm 6 m/s 745 mmHg 75%
    10:00 +15°C° 0.1 mm 6 m/s 745 mmHg 69%
    11:00 +15°C° 0.1 mm 7 m/s 745 mmHg 63%
    12:00 +16°C° 0.1 mm 7 m/s 745 mmHg 58%
    13:00 +16°C° 0.1 mm 7 m/s 745 mmHg 59%
    14:00 +16°C° 0.1 mm 7 m/s 745 mmHg 61%
    15:00 +16°C° 0.1 mm 7 m/s 745 mmHg 63%
    16:00 +15°C° 0.1 mm 5 m/s 746 mmHg 68%
    17:00 +14°C° 0.1 mm 4 m/s 746 mmHg 73%
    18:00 +14°C° 0.1 mm 3 m/s 746 mmHg 78%
    19:00 +12°C° 0 mm 3 m/s 746 mmHg 80%
    20:00 +11°C° 0 mm 3 m/s 746 mmHg 81%
    21:00 +9°C° 0 mm 2 m/s 747 mmHg 83%
    22:00 +8°C° 0 mm 3 m/s 747 mmHg 84%
    23:00 +7°C° 0 mm 3 m/s 747 mmHg 85%

    Après-demain, 7 Juin, Dimanche

    Heure Température Précipitation Vent Pression Humidité
    00:00 +7°C° 0 mm 3 m/s 747 mmHg 86%
    01:00 +5°C° 0 mm 3 m/s 747 mmHg 86%
    02:00 +5°C° 0 mm 3 m/s 747 mmHg 87%
    03:00 +5°C° 0 mm 4 m/s 748 mmHg 87%
    04:00 +6°C° 0 mm 4 m/s 748 mmHg 86%
    05:00 +7°C° 0 mm 4 m/s 748 mmHg 84%
    06:00 +8°C° 0 mm 5 m/s 748 mmHg 83%
    07:00 +9°C° 0 mm 5 m/s 749 mmHg 80%
    08:00 +12°C° 0 mm 4 m/s 749 mmHg 77%
    09:00 +14°C° 0 mm 4 m/s 749 mmHg 74%
    10:00 +15°C° 0.1 mm 4 m/s 749 mmHg 72%
    11:00 +17°C° 0.1 mm 4 m/s 749 mmHg 69%
    12:00 +18°C° 0.1 mm 4 m/s 749 mmHg 66%
    13:00 +18°C° 0.2 mm 3 m/s 749 mmHg 66%
    14:00 +18°C° 0.2 mm 3 m/s 749 mmHg 66%
    15:00 +18°C° 0.2 mm 2 m/s 749 mmHg 66%
    16:00 +18°C° 0.2 mm 2 m/s 749 mmHg 71%
    17:00 +19°C° 0.2 mm 1 m/s 749 mmHg 76%
    18:00 +18°C° 0.2 mm 1 m/s 749 mmHg 81%
    19:00 +15°C° 0.1 mm 1 m/s 750 mmHg 82%
    20:00 +14°C° 0.1 mm 1 m/s 750 mmHg 84%
    21:00 +11°C° 0.1 mm 0 m/s 751 mmHg 85%
    22:00 +10°C° 0 mm 0 m/s 751 mmHg 86%
    23:00 +10°C° 0 mm 0 m/s 751 mmHg 86%

    8 Juin, Lundi

    Heure Température Précipitation Vent Pression Humidité
    00:00 +9°C° 0 mm 0 m/s 751 mmHg 87%
    01:00 +9°C° 0 mm 0 m/s 751 mmHg 87%
    02:00 +8°C° 0 mm 0 m/s 751 mmHg 88%
    03:00 +8°C° 0 mm 0 m/s 751 mmHg 89%
    04:00 +9°C° 0 mm 0 m/s 751 mmHg 88%
    05:00 +10°C° 0 mm 0 m/s 752 mmHg 88%
    06:00 +12°C° 0 mm 0 m/s 752 mmHg 87%
    07:00 +14°C° 0.1 mm 1 m/s 752 mmHg 82%
    08:00 +16°C° 0.1 mm 1 m/s 752 mmHg 76%
    09:00 +19°C° 0.1 mm 1 m/s 752 mmHg 71%
    10:00 +19°C° 0.2 mm 1 m/s 752 mmHg 68%
    11:00 +20°C° 0.2 mm 1 m/s 752 mmHg 64%
    12:00 +20°C° 0.2 mm 2 m/s 752 mmHg 61%
    13:00 +20°C° 0.2 mm 2 m/s 751 mmHg 60%
    14:00 +20°C° 0.2 mm 2 m/s 751 mmHg 59%
    15:00 +21°C° 0.2 mm 2 m/s 751 mmHg 58%
    16:00 +20°C° 0.2 mm 2 m/s 751 mmHg 65%
    17:00 +19°C° 0.2 mm 2 m/s 751 mmHg 72%
    18:00 +18°C° 0.2 mm 3 m/s 751 mmHg 79%
    19:00 +16°C° 0 mm 3 m/s 752 mmHg 84%
    20:00 +14°C° 0 mm 3 m/s 752 mmHg 89%
    21:00 +12°C° 0 mm 3 m/s 753 mmHg 93%
    22:00 +11°C° 0 mm 3 m/s 753 mmHg 94%
    23:00 +11°C° 0 mm 3 m/s 753 mmHg 95%

    9 Juin, Mardi

    Heure Température Précipitation Vent Pression Humidité
    00:00 +10°C° 0 mm 4 m/s 753 mmHg 95%
    01:00 +9°C° 0 mm 3 m/s 753 mmHg 96%
    02:00 +9°C° 0 mm 3 m/s 753 mmHg 96%
    03:00 +8°C° 0 mm 3 m/s 753 mmHg 97%
    04:00 +9°C° 0 mm 3 m/s 753 mmHg 96%
    05:00 +10°C° 0 mm 3 m/s 754 mmHg 95%
    06:00 +11°C° 0 mm 3 m/s 754 mmHg 94%
    07:00 +12°C° 0 mm 3 m/s 754 mmHg 89%
    08:00 +14°C° 0 mm 4 m/s 754 mmHg 84%
    09:00 +17°C° 0 mm 4 m/s 754 mmHg 80%
    10:00 +18°C° 0.2 mm 4 m/s 754 mmHg 79%
    11:00 +18°C° 0.2 mm 4 m/s 754 mmHg 77%
    12:00 +19°C° 0.2 mm 5 m/s 754 mmHg 76%
    13:00 +19°C° 0.8 mm 5 m/s 754 mmHg 78%
    14:00 +19°C° 0.8 mm 5 m/s 754 mmHg 79%
    15:00 +19°C° 0.8 mm 5 m/s 754 mmHg 80%
    16:00 +18°C° 0.6 mm 4 m/s 754 mmHg 83%
    17:00 +18°C° 0.6 mm 4 m/s 754 mmHg 85%
    18:00 +17°C° 0.6 mm 4 m/s 754 mmHg 88%
    19:00 +15°C° 0.1 mm 4 m/s 755 mmHg 89%
    20:00 +14°C° 0.1 mm 4 m/s 755 mmHg 91%
    21:00 +13°C° 0.1 mm 4 m/s 755 mmHg 93%
    22:00 +13°C° 0 mm 4 m/s 755 mmHg 93%
    23:00 +12°C° 0 mm 4 m/s 755 mmHg 94%

    10 Juin, Mercredi

    Heure Température Précipitation Vent Pression Humidité
    00:00 +11°C° 0 mm 4 m/s 755 mmHg 95%
    01:00 +11°C° 0 mm 4 m/s 755 mmHg 95%
    02:00 +11°C° 0 mm 4 m/s 755 mmHg 95%
    03:00 +11°C° 0 mm 4 m/s 755 mmHg 95%
    04:00 +11°C° 0 mm 4 m/s 755 mmHg 94%
    05:00 +12°C° 0 mm 4 m/s 755 mmHg 94%
    06:00 +12°C° 0 mm 4 m/s 756 mmHg 93%
    07:00 +14°C° 0 mm 4 m/s 756 mmHg 89%
    08:00 +17°C° 0 mm 4 m/s 756 mmHg 84%
    09:00 +19°C° 0 mm 5 m/s 756 mmHg 80%
    10:00 +19°C° 0.5 mm 5 m/s 756 mmHg 81%
    11:00 +19°C° 0.5 mm 4 m/s 756 mmHg 82%
    12:00 +19°C° 0.5 mm 4 m/s 756 mmHg 83%
    13:00 +20°C° 0.4 mm 4 m/s 756 mmHg 82%
    14:00 +20°C° 0.4 mm 4 m/s 755 mmHg 82%
    15:00 +20°C° 0.4 mm 4 m/s 755 mmHg 81%
    16:00 +20°C° 0.4 mm 4 m/s 756 mmHg 83%
    17:00 +19°C° 0.4 mm 4 m/s 756 mmHg 84%
    18:00 +18°C° 0.4 mm 4 m/s 756 mmHg 86%
    19:00 +17°C° 0.1 mm 4 m/s 756 mmHg 87%
    20:00 +15°C° 0.1 mm 4 m/s 757 mmHg 89%
    21:00 +14°C° 0.1 mm 4 m/s 757 mmHg 90%
    22:00 +13°C° 0 mm 4 m/s 757 mmHg 90%
    23:00 +13°C° 0 mm 4 m/s 757 mmHg 91%
    Voir plus